Home   Weather   Lansing   Past weeks

Flag for USA Past Weather in Lansing, Michigan, USA — Yesterday and Last 2 Weeks

50 °F

Partly sunny.

Feels Like: 46 °F
Forecast: 35 / 52 °F
Wind: 10 mph from Northwest

Location: Capital City Airport

Current Time: Oct 22, 2016 at 1:50:24 PM

Latest Report: Oct 22, 2016 at 12:53 PM

Visibility: 10 mi

Pressure: 30.05 "Hg

Humidity: 54%

Dew Point: 34 °F

Location of LansingLocation

Past Weather in Lansing — Graph


Lansing Temperature Yesterday

Maximum temperature yesterday: 51 °F (at 1:53 PM)
Minimum temperature yesterday: 41 °F (at 7:53 AM)
Average temperature yesterday: 46 °F

High & Low Weather Summary for the Past Weeks

High80 °F (Oct 7, 1:53 PM)97% (Oct 17, 1:53 AM)30.47 "Hg (Oct 17, 1:53 AM)
Low35 °F (Oct 14, 4:53 AM)39% (Oct 8, 1:53 PM)29.53 "Hg (Oct 17, 9:53 PM)
Average56 °F72%30.10 "Hg
* Reported Oct 7 11:53 AM — Oct 22 11:53 AM, Lansing, Weather by CustomWeather, © 2016

Note: Actual official high and low records may vary slightly from our data, if they occured in-between our weather recording intervals... More about our weather records


Lansing Weather History for the Previous 24 Hours

Scroll right to see more
Time TempWeatherWind HumidityBarometerVisibility
11:53 AM
Sat, Oct 22
46 °FOvercast.10 mph58%30.07 "Hg10 mi
10:53 AM46 °FPassing clouds.10 mph61%30.07 "Hg10 mi
9:53 AM43 °FSunny.9 mph65%30.07 "Hg10 mi
8:53 AM39 °FSunny.7 mph79%30.07 "Hg10 mi
7:53 AM38 °FOvercast.8 mph83%30.08 "Hg10 mi
6:53 AM39 °FOvercast.6 mph76%30.07 "Hg10 mi
5:53 AM38 °FOvercast.7 mph86%30.08 "Hg10 mi
4:53 AM35 °FClear.8 mph88%30.08 "Hg10 mi
3:53 AM36 °FClear.6 mph85%30.07 "Hg10 mi
2:53 AM37 °FClear.6 mph86%30.06 "Hg10 mi
1:53 AM40 °FClear.5 mph80%30.06 "Hg10 mi
12:53 AM43 °FOvercast.7 mph71%30.06 "Hg10 mi
11:53 PM
Fri, Oct 21
44 °FOvercast.7 mph71%30.07 "Hg10 mi
10:53 PM46 °FOvercast.9 mph63%30.08 "Hg10 mi
9:53 PM46 °FOvercast.5 mph61%30.08 "Hg10 mi
8:53 PM46 °FOvercast.3 mph58%30.09 "Hg10 mi
7:53 PM47 °FOvercast.7 mph59%30.09 "Hg10 mi
6:53 PM48 °FMostly cloudy.6 mph59%30.09 "Hg10 mi
5:53 PM50 °FMore clouds than sun.9 mph59%30.09 "Hg10 mi
4:53 PM50 °FOvercast.10 mph57%30.08 "Hg10 mi
3:53 PM50 °FOvercast.9 mph59%30.07 "Hg10 mi
2:53 PM51 °FOvercast.9 mph59%30.08 "Hg10 mi
1:53 PM51 °FMore clouds than sun.8 mph61%30.09 "Hg10 mi
Weather by CustomWeather, © 2016

See weather overviewHow to use our weather pages